Saint Bonnet de Bellac- Haute Vienne - France
Donnes mto: vendredi, 18/05/2012
Date Horaire Temp. E. Hum. E. P.atmo. Pluie Vent Direction Direction Ensoleilleme Solaire P. de rose Temp au vent Rafales
18/05/2012 00:00 14,6 C 77 % 1007,5 hPa 0,0 mm 2,9 km/h (1 Bft) S-SO 202 0 min 0 W/m 10,6 C 14,6 C 3,2 km/h (1 Bft)
18/05/2012 00:10 14,1 C 81 % 1007,6 hPa 0,0 mm 13,7 km/h (3 Bft) S-SO 202 0 min 0 W/m 10,9 C 14,1 C 23,0 km/h (4 Bft)
18/05/2012 00:20 13,8 C 81 % 1007,7 hPa 0,0 mm 6,5 km/h (2 Bft) SO 225 0 min 0 W/m 10,6 C 13,8 C 12,6 km/h (3 Bft)
18/05/2012 00:30 13,5 C 82 % 1007,6 hPa 0,0 mm 8,3 km/h (2 Bft) S-SO 202 0 min 0 W/m 10,5 C 13,5 C 14,0 km/h (3 Bft)
18/05/2012 00:40 13,3 C 83 % 1008,0 hPa 0,0 mm 12,6 km/h (3 Bft) SO 225 0 min 0 W/m 10,5 C 13,3 C 20,2 km/h (4 Bft)
18/05/2012 00:50 13,3 C 84 % 1007,9 hPa 0,0 mm 5,4 km/h (2 Bft) O-SO 247 0 min 0 W/m 10,7 C 13,3 C 13,0 km/h (3 Bft)
18/05/2012 01:00 13,3 C 83 % 1007,9 hPa 0,0 mm 2,5 km/h (1 Bft) S-SO 202 0 min 0 W/m 10,5 C 13,3 C 6,5 km/h (2 Bft)
18/05/2012 01:10 13,3 C 82 % 1007,8 hPa 0,0 mm 12,6 km/h (3 Bft) SO 225 0 min 0 W/m 10,3 C 13,3 C 14,8 km/h (3 Bft)
18/05/2012 01:20 13,2 C 82 % 1007,8 hPa 0,0 mm 15,8 km/h (3 Bft) O-SO 247 0 min 0 W/m 10,2 C 13,2 C 16,2 km/h (3 Bft)
18/05/2012 01:30 13,1 C 81 % 1007,8 hPa 0,0 mm 12,2 km/h (2 Bft) SO 225 0 min 0 W/m 9,9 C 13,1 C 23,8 km/h (4 Bft)
18/05/2012 01:40 13,0 C 81 % 1007,9 hPa 0,0 mm 7,6 km/h (2 Bft) SO 225 0 min 0 W/m 9,8 C 13,0 C 11,2 km/h (2 Bft)
18/05/2012 01:50 12,9 C 83 % 1008,1 hPa 0,0 mm 12,2 km/h (2 Bft) S-SO 202 0 min 0 W/m 10,1 C 12,9 C 13,7 km/h (3 Bft)
18/05/2012 02:00 12,8 C 82 % 1008,0 hPa 0,0 mm 8,6 km/h (2 Bft) SO 225 0 min 0 W/m 9,8 C 12,8 C 8,6 km/h (2 Bft)
18/05/2012 02:10 12,6 C 82 % 1008,2 hPa 0,0 mm 13,3 km/h (3 Bft) SO 225 0 min 0 W/m 9,6 C 12,6 C 19,1 km/h (3 Bft)
18/05/2012 02:20 12,5 C 83 % 1008,2 hPa 0,0 mm 7,9 km/h (2 Bft) SO 225 0 min 0 W/m 9,7 C 12,5 C 14,4 km/h (3 Bft)
18/05/2012 02:30 12,4 C 82 % 1008,3 hPa 0,0 mm 5,0 km/h (1 Bft) S-SO 202 0 min 0 W/m 9,4 C 12,4 C 7,9 km/h (2 Bft)
18/05/2012 02:40 12,3 C 82 % 1008,3 hPa 0,0 mm 8,3 km/h (2 Bft) S-SO 202 0 min 0 W/m 9,3 C 12,3 C 11,5 km/h (2 Bft)
18/05/2012 02:50 12,3 C 82 % 1008,4 hPa 0,0 mm 4,0 km/h (1 Bft) SO 225 0 min 0 W/m 9,3 C 12,3 C 7,6 km/h (2 Bft)
18/05/2012 03:02 12,3 C 82 % 1008,5 hPa 0,0 mm 5,4 km/h (2 Bft) S-SO 202 0 min 0 W/m 9,3 C 12,3 C 14,0 km/h (3 Bft)
18/05/2012 03:10 12,3 C 82 % 1008,3 hPa 0,0 mm 4,0 km/h (1 Bft) SO 225 0 min 0 W/m 9,3 C 12,3 C 10,8 km/h (2 Bft)
18/05/2012 03:20 12,3 C 83 % 1008,2 hPa 0,0 mm 7,6 km/h (2 Bft) SO 225 0 min 0 W/m 9,5 C 12,3 C 10,4 km/h (2 Bft)
18/05/2012 03:30 12,2 C 83 % 1008,2 hPa 0,0 mm 3,6 km/h (1 Bft) SO 225 0 min 0 W/m 9,4 C 12,2 C 4,0 km/h (1 Bft)
18/05/2012 03:40 12,3 C 83 % 1008,3 hPa 0,0 mm 3,6 km/h (1 Bft) SO 225 0 min 0 W/m 9,5 C 12,3 C 3,6 km/h (1 Bft)
18/05/2012 03:50 12,3 C 84 % 1008,3 hPa 0,0 mm 6,1 km/h (2 Bft) SO 225 0 min 0 W/m 9,7 C 12,3 C 6,8 km/h (2 Bft)
18/05/2012 04:00 12,2 C 83 % 1008,1 hPa 0,0 mm 1,8 km/h (1 Bft) SO 225 0 min 0 W/m 9,4 C 12,2 C 4,3 km/h (1 Bft)
18/05/2012 04:10 12,2 C 84 % 1008,1 hPa 0,0 mm 2,2 km/h (1 Bft) SO 225 0 min 0 W/m 9,6 C 12,2 C 4,0 km/h (1 Bft)
18/05/2012 04:20 12,2 C 84 % 1007,9 hPa 0,0 mm 3,2 km/h (1 Bft) O-SO 247 0 min 0 W/m 9,6 C 12,2 C 4,3 km/h (1 Bft)
18/05/2012 04:30 12,1 C 84 % 1007,9 hPa 0,0 mm 2,5 km/h (1 Bft) S-SO 202 0 min 0 W/m 9,5 C 12,1 C 6,5 km/h (2 Bft)
18/05/2012 04:40 12,1 C 84 % 1007,9 hPa 0,0 mm 6,8 km/h (2 Bft) O-SO 247 0 min 0 W/m 9,5 C 12,1 C 6,8 km/h (2 Bft)
18/05/2012 04:50 12,1 C 85 % 1008,1 hPa 0,0 mm 6,1 km/h (2 Bft) O-SO 247 0 min 0 W/m 9,7 C 12,1 C 11,5 km/h (2 Bft)
18/05/2012 05:00 12,1 C 85 % 1008,1 hPa 0,0 mm 2,5 km/h (1 Bft) SO 225 0 min 0 W/m 9,7 C 12,1 C 4,3 km/h (1 Bft)
18/05/2012 05:10 12,1 C 85 % 1008,0 hPa 0,0 mm 5,4 km/h (2 Bft) SO 225 0 min 0 W/m 9,7 C 12,1 C 5,4 km/h (2 Bft)
18/05/2012 05:20 12,1 C 85 % 1008,0 hPa 0,0 mm 9,0 km/h (2 Bft) S-SO 202 0 min 0 W/m 9,7 C 12,1 C 14,0 km/h (3 Bft)
18/05/2012 05:30 12,1 C 85 % 1007,9 hPa 0,0 mm 4,0 km/h (1 Bft) S-SO 202 0 min 0 W/m 9,7 C 12,1 C 8,3 km/h (2 Bft)
18/05/2012 05:40 12,1 C 85 % 1008,0 hPa 0,0 mm 7,2 km/h (2 Bft) S-SO 202 0 min 0 W/m 9,7 C 12,1 C 10,1 km/h (2 Bft)
18/05/2012 05:50 11,9 C 85 % 1007,9 hPa 0,0 mm 4,7 km/h (1 Bft) S 180 0 min 0 W/m 9,5 C 11,9 C 6,5 km/h (2 Bft)
18/05/2012 06:00 11,8 C 86 % 1007,9 hPa 0,0 mm 6,5 km/h (2 Bft) SO 225 0 min 0 W/m 9,5 C 11,8 C 10,8 km/h (2 Bft)
18/05/2012 06:10 11,8 C 86 % 1007,8 hPa 0,0 mm 5,0 km/h (1 Bft) SO 225 0 min 0 W/m 9,5 C 11,8 C 6,1 km/h (2 Bft)
18/05/2012 06:20 11,6 C 86 % 1007,9 hPa 0,0 mm 7,9 km/h (2 Bft) S-SO 202 0 min 0 W/m 9,3 C 11,6 C 14,4 km/h (3 Bft)
18/05/2012 06:30 11,5 C 87 % 1007,9 hPa 0,0 mm 5,4 km/h (2 Bft) O-SO 247 0 min 0 W/m 9,4 C 11,5 C 8,6 km/h (2 Bft)
18/05/2012 06:40 11,4 C 87 % 1008,0 hPa 0,0 mm 4,3 km/h (1 Bft) SO 225 0 min 0 W/m 9,3 C 11,4 C 4,3 km/h (1 Bft)
18/05/2012 06:50 11,4 C 88 % 1008,0 hPa 0,0 mm 7,2 km/h (2 Bft) S 180 0 min 0 W/m 9,5 C 11,4 C 12,6 km/h (3 Bft)
18/05/2012 07:00 11,4 C 88 % 1008,1 hPa 0,0 mm 3,6 km/h (1 Bft) SO 225 0 min 0 W/m 9,5 C 11,4 C 7,2 km/h (2 Bft)
18/05/2012 07:10 11,5 C 88 % 1008,1 hPa 0,0 mm 3,2 km/h (1 Bft) SO 225 0 min 0 W/m 9,6 C 11,5 C 3,2 km/h (1 Bft)
18/05/2012 07:20 11,6 C 88 % 1008,2 hPa 0,0 mm 9,0 km/h (2 Bft) SO 225 0 min 0 W/m 9,7 C 11,6 C 13,0 km/h (3 Bft)
18/05/2012 07:30 11,7 C 88 % 1008,2 hPa 0,0 mm 4,7 km/h (1 Bft) S-SO 202 0 min 0 W/m 9,8 C 11,7 C 9,7 km/h (2 Bft)
18/05/2012 07:40 11,8 C 87 % 1008,3 hPa 0,0 mm 7,6 km/h (2 Bft) S-SE 157 0 min 0 W/m 9,7 C 11,8 C 13,7 km/h (3 Bft)
18/05/2012 07:50 11,9 C 86 % 1008,5 hPa 0,0 mm 9,0 km/h (2 Bft) S 180 0 min 0 W/m 9,6 C 11,9 C 13,7 km/h (3 Bft)
18/05/2012 08:00 12,0 C 85 % 1008,6 hPa 0,0 mm 7,9 km/h (2 Bft) SO 225 0 min 0 W/m 9,6 C 12,0 C 7,9 km/h (2 Bft)
18/05/2012 08:10 12,2 C 85 % 1008,7 hPa 0,0 mm 6,8 km/h (2 Bft) S-SO 202 0 min 0 W/m 9,8 C 12,2 C 7,9 km/h (2 Bft)
18/05/2012 08:20 12,3 C 84 % 1008,6 hPa 0,0 mm 6,1 km/h (2 Bft) O-SO 247 0 min 0 W/m 9,7 C 12,3 C 7,6 km/h (2 Bft)
18/05/2012 08:30 12,4 C 83 % 1008,7 hPa 0,0 mm 9,0 km/h (2 Bft) SO 225 0 min 0 W/m 9,6 C 12,4 C 9,0 km/h (2 Bft)
18/05/2012 08:40 12,5 C 83 % 1008,8 hPa 0,0 mm 9,4 km/h (2 Bft) S-SO 202 0 min 0 W/m 9,7 C 12,5 C 9,7 km/h (2 Bft)
18/05/2012 08:50 12,6 C 83 % 1008,9 hPa 0,0 mm 7,9 km/h (2 Bft) SO 225 0 min 0 W/m 9,8 C 12,6 C 14,0 km/h (3 Bft)
18/05/2012 09:00 12,8 C 82 % 1009,0 hPa 0,0 mm 10,4 km/h (2 Bft) S-SO 202 0 min 0 W/m 9,8 C 12,8 C 11,9 km/h (2 Bft)
18/05/2012 09:10 12,9 C 82 % 1009,1 hPa 0,0 mm 5,8 km/h (2 Bft) SO 225 0 min 0 W/m 9,9 C 12,9 C 6,5 km/h (2 Bft)
18/05/2012 09:20 13,1 C 81 % 1009,0 hPa 0,0 mm 10,8 km/h (2 Bft) SO 225 0 min 0 W/m 9,9 C 13,1 C 16,9 km/h (3 Bft)
18/05/2012 09:30 13,1 C 80 % 1009,1 hPa 0,0 mm 8,3 km/h (2 Bft) SO 225 0 min 0 W/m 9,7 C 13,1 C 10,8 km/h (2 Bft)
18/05/2012 09:40 13,1 C 80 % 1009,2 hPa 0,0 mm 6,8 km/h (2 Bft) S-SO 202 0 min 0 W/m 9,7 C 13,1 C 6,8 km/h (2 Bft)
18/05/2012 09:50 13,1 C 80 % 1009,4 hPa 0,0 mm 7,2 km/h (2 Bft) S-SO 202 0 min 0 W/m 9,7 C 13,1 C 11,5 km/h (2 Bft)
18/05/2012 10:00 12,9 C 81 % 1009,4 hPa 0,0 mm 9,4 km/h (2 Bft) SO 225 0 min 0 W/m 9,7 C 12,9 C 14,8 km/h (3 Bft)
18/05/2012 10:10 12,9 C 80 % 1009,4 hPa 0,0 mm 5,8 km/h (2 Bft) SO 225 0 min 0 W/m 9,5 C 12,9 C 9,7 km/h (2 Bft)
18/05/2012 10:20 12,9 C 80 % 1009,5 hPa 0,0 mm 7,6 km/h (2 Bft) O-SO 247 0 min 0 W/m 9,5 C 12,9 C 11,5 km/h (2 Bft)
18/05/2012 10:30 12,9 C 80 % 1009,3 hPa 0,0 mm 8,3 km/h (2 Bft) O-SO 247 0 min 0 W/m 9,5 C 12,9 C 14,8 km/h (3 Bft)
18/05/2012 10:40 12,9 C 81 % 1009,4 hPa 0,0 mm 8,3 km/h (2 Bft) S 180 0 min 0 W/m 9,7 C 12,9 C 8,3 km/h (2 Bft)
18/05/2012 10:50 13,1 C 79 % 1009,4 hPa 0,0 mm 3,2 km/h (1 Bft) O-SO 247 0 min 0 W/m 9,5 C 13,1 C 7,6 km/h (2 Bft)
18/05/2012 11:00 13,2 C 80 % 1009,4 hPa 0,0 mm 6,1 km/h (2 Bft) S-SO 202 0 min 0 W/m 9,8 C 13,2 C 11,2 km/h (2 Bft)
18/05/2012 11:10 13,3 C 79 % 1009,4 hPa 0,0 mm 5,0 km/h (1 Bft) SO 225 0 min 0 W/m 9,7 C 13,3 C 12,6 km/h (3 Bft)
18/05/2012 11:20 13,4 C 79 % 1009,4 hPa 0,0 mm 5,4 km/h (2 Bft) S-SO 202 0 min 0 W/m 9,8 C 13,4 C 9,4 km/h (2 Bft)
18/05/2012 11:30 13,5 C 79 % 1009,4 hPa 0,0 mm 6,1 km/h (2 Bft) S-SO 202 0 min 0 W/m 9,9 C 13,5 C 8,3 km/h (2 Bft)
18/05/2012 11:40 13,8 C 79 % 1009,4 hPa 0,0 mm 5,4 km/h (2 Bft) S-SO 202 0 min 0 W/m 10,2 C 13,8 C 10,1 km/h (2 Bft)
18/05/2012 11:50 13,8 C 78 % 1009,6 hPa 0,0 mm 6,1 km/h (2 Bft) S-SO 202 0 min 0 W/m 10,0 C 13,8 C 8,3 km/h (2 Bft)
18/05/2012 12:00 13,7 C 78 % 1009,6 hPa 0,0 mm 10,1 km/h (2 Bft) SO 225 0 min 0 W/m 9,9 C 13,7 C 16,2 km/h (3 Bft)
18/05/2012 12:10 13,6 C 79 % 1009,7 hPa 0,0 mm 6,8 km/h (2 Bft) SO 225 0 min 0 W/m 10,0 C 13,6 C 9,7 km/h (2 Bft)
18/05/2012 12:20 13,7 C 79 % 1009,8 hPa 0,0 mm 5,8 km/h (2 Bft) SO 225 0 min 0 W/m 10,1 C 13,7 C 7,2 km/h (2 Bft)
18/05/2012 12:30 13,6 C 79 % 1009,8 hPa 0,0 mm 6,8 km/h (2 Bft) S-SO 202 0 min 0 W/m 10,0 C 13,6 C 6,8 km/h (2 Bft)
18/05/2012 12:40 13,4 C 81 % 1010,0 hPa 0,0 mm 3,6 km/h (1 Bft) SO 225 0 min 0 W/m 10,2 C 13,4 C 6,1 km/h (2 Bft)
18/05/2012 12:50 13,3 C 81 % 1010,0 hPa 0,0 mm 7,2 km/h (2 Bft) S 180 0 min 0 W/m 10,1 C 13,3 C 9,4 km/h (2 Bft)
18/05/2012 13:00 13,3 C 82 % 1010,1 hPa 0,0 mm 8,3 km/h (2 Bft) SO 225 0 min 0 W/m 10,3 C 13,3 C 10,1 km/h (2 Bft)
18/05/2012 13:10 13,1 C 83 % 1010,1 hPa 0,0 mm 10,8 km/h (2 Bft) S-SO 202 0 min 0 W/m 10,3 C 13,1 C 13,7 km/h (3 Bft)
18/05/2012 13:20 13,0 C 85 % 1010,0 hPa 0,0 mm 8,6 km/h (2 Bft) SO 225 0 min 0 W/m 10,5 C 13,0 C 14,4 km/h (3 Bft)
18/05/2012 13:30 12,9 C 86 % 1010,0 hPa 0,0 mm 9,7 km/h (2 Bft) S-SO 202 0 min 0 W/m 10,6 C 12,9 C 14,0 km/h (3 Bft)
18/05/2012 13:40 13,1 C 86 % 1010,1 hPa 0,0 mm 5,0 km/h (1 Bft) SO 225 0 min 0 W/m 10,8 C 13,1 C 12,2 km/h (2 Bft)
18/05/2012 13:50 12,9 C 87 % 1010,2 hPa 0,1 mm 6,5 km/h (2 Bft) O-SO 247 0 min 0 W/m 10,8 C 12,9 C 10,8 km/h (2 Bft)
18/05/2012 14:00 12,8 C 88 % 1010,1 hPa 0,0 mm 5,4 km/h (2 Bft) SO 225 0 min 0 W/m 10,9 C 12,8 C 9,7 km/h (2 Bft)
18/05/2012 14:10 12,8 C 89 % 1010,1 hPa 0,1 mm 5,0 km/h (1 Bft) S-SO 202 0 min 0 W/m 11,0 C 12,8 C 7,6 km/h (2 Bft)
18/05/2012 14:20 12,8 C 90 % 1010,1 hPa 0,0 mm 5,4 km/h (2 Bft) SO 225 0 min 0 W/m 11,2 C 12,8 C 8,6 km/h (2 Bft)
18/05/2012 14:30 12,9 C 90 % 1010,2 hPa 0,0 mm 6,1 km/h (2 Bft) SO 225 0 min 0 W/m 11,3 C 12,9 C 8,6 km/h (2 Bft)
18/05/2012 14:40 12,9 C 88 % 1010,3 hPa 0,0 mm 7,9 km/h (2 Bft) SO 225 0 min 0 W/m 11,0 C 12,9 C 15,1 km/h (3 Bft)
18/05/2012 14:50 12,8 C 88 % 1010,3 hPa 0,0 mm 9,4 km/h (2 Bft) SO 225 0 min 0 W/m 10,9 C 12,8 C 11,9 km/h (2 Bft)
18/05/2012 15:00 12,9 C 90 % 1010,3 hPa 0,1 mm 4,3 km/h (1 Bft) SO 225 0 min 0 W/m 11,3 C 12,9 C 7,9 km/h (2 Bft)
18/05/2012 15:10 12,9 C 89 % 1010,3 hPa 0,0 mm 8,3 km/h (2 Bft) S-SO 202 0 min 0 W/m 11,1 C 12,9 C 11,9 km/h (2 Bft)
18/05/2012 15:20 12,8 C 88 % 1010,3 hPa 0,0 mm 9,7 km/h (2 Bft) S-SO 202 0 min 0 W/m 10,9 C 12,8 C 12,2 km/h (2 Bft)
18/05/2012 15:30 12,8 C 88 % 1010,4 hPa 0,0 mm 7,2 km/h (2 Bft) S-SO 202 0 min 0 W/m 10,9 C 12,8 C 8,6 km/h (2 Bft)
18/05/2012 15:40 12,8 C 88 % 1010,4 hPa 0,0 mm 5,8 km/h (2 Bft) S 180 0 min 0 W/m 10,9 C 12,8 C 8,6 km/h (2 Bft)
18/05/2012 15:50 12,8 C 88 % 1010,4 hPa 0,0 mm 3,6 km/h (1 Bft) S-SO 202 0 min 0 W/m 10,9 C 12,8 C 9,7 km/h (2 Bft)
18/05/2012 16:00 12,8 C 89 % 1010,4 hPa 0,0 mm 2,5 km/h (1 Bft) SO 225 0 min 0 W/m 11,0 C 12,8 C 4,3 km/h (1 Bft)
18/05/2012 16:10 12,8 C 89 % 1010,5 hPa 0,1 mm 1,1 km/h (1 Bft) SO 225 0 min 0 W/m 11,0 C 12,8 C 4,0 km/h (1 Bft)
18/05/2012 16:20 12,8 C 90 % 1010,4 hPa 0,0 mm 5,4 km/h (2 Bft) S-SO 202 0 min 0 W/m 11,2 C 12,8 C 10,4 km/h (2 Bft)
18/05/2012 16:30 12,7 C 90 % 1010,4 hPa 0,0 mm 5,4 km/h (2 Bft) SO 225 0 min 0 W/m 11,1 C 12,7 C 9,4 km/h (2 Bft)
18/05/2012 16:40 12,7 C 89 % 1010,4 hPa 0,0 mm 3,6 km/h (1 Bft) S-SO 202 0 min 0 W/m 10,9 C 12,7 C 8,3 km/h (2 Bft)
18/05/2012 16:50 12,8 C 90 % 1010,4 hPa 0,0 mm 4,3 km/h (1 Bft) S-SO 202 0 min 0 W/m 11,2 C 12,8 C 6,1 km/h (2 Bft)
18/05/2012 17:00 12,8 C 90 % 1010,4 hPa 0,0 mm 9,4 km/h (2 Bft) S-SO 202 0 min 0 W/m 11,2 C 12,8 C 13,3 km/h (3 Bft)
18/05/2012 17:10 12,9 C 90 % 1010,3 hPa 0,0 mm 6,5 km/h (2 Bft) SO 225 0 min 0 W/m 11,3 C 12,9 C 13,0 km/h (3 Bft)
18/05/2012 17:20 12,9 C 89 % 1010,3 hPa 0,0 mm 5,0 km/h (1 Bft) S 180 0 min 0 W/m 11,1 C 12,9 C 9,7 km/h (2 Bft)
18/05/2012 17:30 13,0 C 88 % 1010,3 hPa 0,0 mm 6,8 km/h (2 Bft) S-SO 202 0 min 0 W/m 11,1 C 13,0 C 7,6 km/h (2 Bft)
18/05/2012 17:40 13,1 C 87 % 1010,4 hPa 0,0 mm 6,1 km/h (2 Bft) S-SO 202 0 min 0 W/m 11,0 C 13,1 C 9,7 km/h (2 Bft)
18/05/2012 17:50 13,1 C 86 % 1010,4 hPa 0,0 mm 6,8 km/h (2 Bft) SO 225 0 min 0 W/m 10,8 C 13,1 C 12,2 km/h (2 Bft)
18/05/2012 18:00 12,9 C 85 % 1010,4 hPa 0,0 mm 7,6 km/h (2 Bft) S-SO 202 0 min 0 W/m 10,4 C 12,9 C 8,3 km/h (2 Bft)
18/05/2012 18:10 12,8 C 87 % 1010,4 hPa 0,0 mm 3,2 km/h (1 Bft) S 180 0 min 0 W/m 10,7 C 12,8 C 6,1 km/h (2 Bft)
18/05/2012 18:20 12,8 C 88 % 1010,3 hPa 0,0 mm 2,5 km/h (1 Bft) SO 225 0 min 0 W/m 10,9 C 12,8 C 7,2 km/h (2 Bft)
18/05/2012 18:30 12,9 C 88 % 1010,3 hPa 0,1 mm 2,2 km/h (1 Bft) S-SO 202 0 min 0 W/m 11,0 C 12,9 C 3,2 km/h (1 Bft)
18/05/2012 18:40 13,0 C 87 % 1010,2 hPa 0,0 mm 4,0 km/h (1 Bft) SO 225 0 min 0 W/m 10,9 C 13,0 C 10,1 km/h (2 Bft)
18/05/2012 18:50 13,1 C 86 % 1010,2 hPa 0,0 mm 3,6 km/h (1 Bft) O-SO 247 0 min 0 W/m 10,8 C 13,1 C 4,3 km/h (1 Bft)
18/05/2012 19:00 13,1 C 86 % 1010,2 hPa 0,0 mm 3,2 km/h (1 Bft) SO 225 0 min 0 W/m 10,8 C 13,1 C 4,0 km/h (1 Bft)
18/05/2012 19:10 13,0 C 85 % 1010,2 hPa 0,0 mm 5,8 km/h (2 Bft) S-SO 202 0 min 0 W/m 10,5 C 13,0 C 6,8 km/h (2 Bft)
18/05/2012 19:20 12,9 C 86 % 1010,3 hPa 0,0 mm 3,6 km/h (1 Bft) SO 225 0 min 0 W/m 10,6 C 12,9 C 6,5 km/h (2 Bft)
18/05/2012 19:30 12,8 C 86 % 1010,4 hPa 0,0 mm 3,2 km/h (1 Bft) S-SO 202 0 min 0 W/m 10,5 C 12,8 C 8,3 km/h (2 Bft)
18/05/2012 19:40 12,6 C 87 % 1010,4 hPa 0,0 mm 3,2 km/h (1 Bft) SO 225 0 min 0 W/m 10,5 C 12,6 C 3,2 km/h (1 Bft)
18/05/2012 19:50 12,6 C 87 % 1010,5 hPa 0,0 mm 5,4 km/h (2 Bft) S-SO 202 0 min 0 W/m 10,5 C 12,6 C 6,5 km/h (2 Bft)
18/05/2012 20:00 12,5 C 87 % 1010,5 hPa 0,0 mm 2,5 km/h (1 Bft) S-SO 202 0 min 0 W/m 10,4 C 12,5 C 7,6 km/h (2 Bft)
18/05/2012 20:10 12,4 C 88 % 1010,5 hPa 0,0 mm 0,7 km/h (0 Bft) S-SO 202 0 min 0 W/m 10,5 C 12,4 C 4,0 km/h (1 Bft)
18/05/2012 20:20 12,4 C 88 % 1010,6 hPa 0,0 mm 0,0 km/h (0 Bft) S-SO 202 0 min 0 W/m 10,5 C 12,4 C 0,0 km/h (0 Bft)
18/05/2012 20:30 12,4 C 88 % 1010,6 hPa 0,0 mm 2,2 km/h (1 Bft) S 180 0 min 0 W/m 10,5 C 12,4 C 4,3 km/h (1 Bft)
18/05/2012 20:40 12,4 C 88 % 1010,6 hPa 0,0 mm 0,4 km/h (0 Bft) S-SO 202 0 min 0 W/m 10,5 C 12,4 C 0,4 km/h (0 Bft)
18/05/2012 20:50 12,4 C 88 % 1010,7 hPa 0,0 mm 0,0 km/h (0 Bft) S-SO 202 0 min 0 W/m 10,5 C 12,4 C 3,2 km/h (1 Bft)
18/05/2012 21:00 12,3 C 88 % 1010,6 hPa 0,0 mm 0,7 km/h (0 Bft) S 180 0 min 0 W/m 10,4 C 12,3 C 3,6 km/h (1 Bft)
18/05/2012 21:10 12,3 C 88 % 1010,6 hPa 0,0 mm 0,4 km/h (0 Bft) S 180 0 min 0 W/m 10,4 C 12,3 C 0,4 km/h (0 Bft)
18/05/2012 21:20 12,3 C 88 % 1010,7 hPa 0,0 mm 0,4 km/h (0 Bft) S-SO 202 0 min 0 W/m 10,4 C 12,3 C 2,9 km/h (1 Bft)
18/05/2012 21:30 12,3 C 88 % 1010,7 hPa 0,0 mm 0,4 km/h (0 Bft) S-SO 202 0 min 0 W/m 10,4 C 12,3 C 0,4 km/h (0 Bft)
18/05/2012 21:40 12,2 C 88 % 1010,8 hPa 0,0 mm 0,4 km/h (0 Bft) S-SO 202 0 min 0 W/m 10,3 C 12,2 C 2,9 km/h (1 Bft)
18/05/2012 21:50 12,2 C 88 % 1010,9 hPa 0,0 mm 0,0 km/h (0 Bft) S-SO 202 0 min 0 W/m 10,3 C 12,2 C 0,0 km/h (0 Bft)
18/05/2012 22:00 12,2 C 87 % 1010,9 hPa 0,0 mm 0,0 km/h (0 Bft) S-SO 202 0 min 0 W/m 10,1 C 12,2 C 0,0 km/h (0 Bft)
18/05/2012 22:10 12,2 C 88 % 1011,2 hPa 0,0 mm 0,0 km/h (0 Bft) S-SO 202 0 min 0 W/m 10,3 C 12,2 C 0,0 km/h (0 Bft)
18/05/2012 22:20 12,2 C 87 % 1011,0 hPa 0,0 mm 0,0 km/h (0 Bft) S-SO 202 0 min 0 W/m 10,1 C 12,2 C 0,0 km/h (0 Bft)
18/05/2012 22:30 12,2 C 87 % 1011,0 hPa 0,0 mm 0,0 km/h (0 Bft) S-SO 202 0 min 0 W/m 10,1 C 12,2 C 0,0 km/h (0 Bft)
18/05/2012 22:40 12,1 C 87 % 1010,9 hPa 0,0 mm 0,0 km/h (0 Bft) S-SO 202 0 min 0 W/m 10,0 C 12,1 C 3,2 km/h (1 Bft)
18/05/2012 22:50 12,1 C 87 % 1011,1 hPa 0,0 mm 0,0 km/h (0 Bft) S-SO 202 0 min 0 W/m 10,0 C 12,1 C 0,0 km/h (0 Bft)
18/05/2012 23:00 12,1 C 87 % 1011,1 hPa 0,0 mm 0,0 km/h (0 Bft) S-SO 202 0 min 0 W/m 10,0 C 12,1 C 0,0 km/h (0 Bft)
18/05/2012 23:10 12,1 C 88 % 1011,0 hPa 0,0 mm 0,0 km/h (0 Bft) S-SO 202 0 min 0 W/m 10,2 C 12,1 C 0,0 km/h (0 Bft)
18/05/2012 23:20 12,1 C 87 % 1011,0 hPa 0,0 mm 0,0 km/h (0 Bft) S-SO 202 0 min 0 W/m 10,0 C 12,1 C 0,0 km/h (0 Bft)
18/05/2012 23:30 12,1 C 88 % 1011,1 hPa 0,0 mm 0,0 km/h (0 Bft) S 180 0 min 0 W/m 10,2 C 12,1 C 0,0 km/h (0 Bft)
18/05/2012 23:40 12,1 C 88 % 1011,1 hPa 0,0 mm 0,0 km/h (0 Bft) S 180 0 min 0 W/m 10,2 C 12,1 C 0,0 km/h (0 Bft)
18/05/2012 23:50 12,1 C 88 % 1011,0 hPa 0,0 mm 0,0 km/h (0 Bft) S 180 0 min 0 W/m 10,2 C 12,1 C 0,0 km/h (0 Bft)
_ Min-Heure 07:00 00:00 00:00 - 23:50 - - - - 06:40 07:00 23:50
Minimum _ 11,4 C 77 % 1007,5 hPa - 0,0 km/h (0 Bft) - - - - 9,3 C 11,4 C 0,0 km/h (0 Bft)
_ Max-Heure 00:00 17:10 22:10 18:30 01:20 - - 23:50 23:50 17:10 00:00 01:30
Maximum _ 14,6 C 90 % 1011,2 hPa 0,1 mm 15,8 km/h
O-SO (3 Bft)
- - 0 min 0 W/m 11,3 C 14,6 C 23,8 km/h
SO (4 Bft)
Moyenne _ 12,6 C 85 % 1009,4 hPa #0,5 mm 5,4 km/h (2 Bft) S-SO - #0 min. 0 W/m 10,2 C 12,6 C 8,4 km/h (2 Bft)
Saint Bonnet de Bellac- Haute Vienne - France